logo
Search for airport 
image banner adimage banner adimage banner ad
image banner ad

LOAF - Baden Kh

Located in District Baden, Austria

ICAO - , IATA -

Data provided by Airmate  

General information

Coordinates: N48°0'2" E16°15'21"
Elevation is 792 feet MSL.
 
View others Airports in Lower Austria

Operational data

Special qualification required
Current time UTC:
Current local time:
Weather at : LOAV - Voslau ( 4 km )
METAR: LOAV 290900Z 35009KT CAVOK 19/10
TAF: TAF LOAV 290815Z 2909/2918 32010KT 9999 FEW050 BECMG 2916/2918 VRB03KT
View NOTAMs / SUP AIP / TFR affecting this airport [VIEW]
Communications frequencies: [VIEW]

Runways:

Airport contact information

Address: District Baden Austria

Satellite view of LOAF